Regional Weather Roundup
Issued by NWS Huntsville, AL

Home | Current Version | Previous Version | Text Only | Print | Product List | Glossary On
Versions: 1 2 3 4 5 6 7 8 9 10 11 12 13 14 15 16 17 18 19 20 21 22 23 24 25 26 27 28 29 30 31 32 33 34 35 36 37 38 39 40 41 42 43 44 45 46 47 48 49 50
000
ASUS44 KHUN 211210
RWRHUN

WEATHER ROUNDUP FOR THE TENNESSEE VALLEY
NATIONAL WEATHER SERVICE HUNTSVILLE AL
700 AM CDT TUE APR 21 2015

ALZ001>004-211300-
NORTHWEST ALABAMA

CITY           SKY/WX    TMP DP  RH WIND       PRES   REMARKS
COURTLAND HCN    N/A     44  32  62 NW3         N/A
RUSSELLVILLE     N/A     41 N/A N/A MISG        N/A
SHOALS AIRPORT CLEAR     46  42  86 NW6       30.02R
6HR MIN TEMP:  44; 6HR MAX TEMP:  49;

SHOALS TVA RES   N/A     45 N/A N/A MISG        N/A
$$

ALZ005>007-016-211300-
NORTH CENTRAL ALABAMA

CITY           SKY/WX    TMP DP  RH WIND       PRES   REMARKS
DECATUR AP     CLEAR     48  44  86 NW3       30.00R
6HR MIN TEMP:  45; 6HR MAX TEMP:  51;

HUNTSVILLE AP  CLEAR     48  45  89 CALM      29.99R
6HR MIN TEMP:  47; 6HR MAX TEMP:  52;

MERIDIANVILLE  CLEAR     43  39  87 CALM      29.99R
REDSTONE ARSN  CLEAR     45  44  95 SW2       29.98R
VINEMONT AP    FAIR      46  41  83 CALM      30.01R
$$

ALZ008>010-211300-
NORTHEAST ALABAMA

CITY           SKY/WX    TMP DP  RH WIND       PRES   REMARKS
ALBERTVILLE    CLEAR     46  45  93 NW5       29.97R
FORT PAYNE     FOG       39  37  93 CALM      29.98R VSB<1/4
SCOTTSBORO HCN   N/A     41 N/A N/A MISG        N/A
VALLEY HEAD      N/A     39 N/A N/A MISG        N/A
$$

TNZ076-096-097-211300-
SOUTHEASTERN MIDDLE TENNESSEE

CITY           SKY/WX    TMP DP  RH WIND       PRES   REMARKS
TULLAHOMA      SUNNY     43  37  81 CALM      29.97S
WINCHESTER     SUNNY     41  41 100 CALM      29.98R
$$

...SURROUNDING SITES...

CITY           SKY/WX    TMP DP  RH WIND       PRES   REMARKS
ATLANTA        MOSUNNY   52  43  71 NW6       29.96R
ANNISTON       SUNNY     48  46  93 CALM      29.99R
BIRMINGHAM     CLEAR     48  47  96 CALM      30.02R
CHATTANOOGA    SUNNY     49  45  86 CALM      29.98R
CORINTH          N/A    N/A N/A N/A MISG      30.01R
DALTON         SUNNY     45  45 100 CALM      29.97R
GADSDEN        SUNNY     46  41  81 CALM      29.98R
GOLDEN TRNGL   CLEAR     48  41  76 NW5       30.03R
HALEYVILLE       N/A     42  42 100 CALM      30.03R
JACKSON TN     CLEAR     43  38  82 S5        30.00R
MEMPHIS        PTCLDY    47  39  74 CALM      30.01R
NASHVILLE      CLEAR     44  42  93 CALM      29.98R
OXFORD MS      FAIR      39  39 100 CALM      30.05R
ROME           SUNNY     47  45  93 CALM      29.97R
SAVANNAH       CLEAR     37  32  81 CALM      30.01R
TUPELO         CLEAR     48  40  73 CALM      30.03R
TUSCALOOSA     CLEAR     48  46  93 CALM      30.03R
$$

...GULF COAST WEATHER...

CITY           SKY/WX    TMP DP  RH WIND       PRES   REMARKS
GULFPORT       CLOUDY    56  50  80 N3        30.02R
PASCAGOULA     MOCLDY    54  53  97 CALM      30.02R
MOBILE         MOCLDY    55  49  80 N3        30.03R
GULF SHORES    PTSUNNY   54  50  86 CALM      30.02R
PENSACOLA      MOCLDY    58  50  75 N3        30.02R
DESTIN         CLEAR     61  50  67 NE7       30.02R
PANAMA CITY    CLEAR     62  53  74 N5        30.00R
APPALACHICOLA  SUNNY     64  55  72 N10       29.98R
$$



USA.gov is the U.S. government's official web portal to all federal, state and local government web resources and services.